This is the latest recevied weather packets stored in our database for station/object VE3MNX. If no packets are shown the sender has not sent any weather packets the latest 10 day(s).
| Time | Temp. | Humidity | Pressure | Rain* | Wind** | Luminosity | Snow |
|---|---|---|---|---|---|---|---|
| 1778175498 | 10.56° C | 74% | 1010.8 hPa | 0 mm | - | - | - |
| 1778174597 | 10° C | 78% | 1010.8 hPa | 0 mm | - | - | - |
| 1778173697 | 10.56° C | 81% | 1011.2 hPa | 0 mm | - | - | - |
| 1778172799 | 10.56° C | 79% | 1011.2 hPa | 0 mm | - | - | - |
| 1778171896 | 10.56° C | 77% | 1010.8 hPa | 0 mm | - | - | - |
| 1778170998 | 10.56° C | 77% | 1011.2 hPa | 0 mm | - | - | - |
| 1778170097 | 11.11° C | 84% | 1011.2 hPa | 0 mm | - | - | - |
| 1778169196 | 10.56° C | 84% | 1011.2 hPa | 0 mm | - | - | - |
| 1778168296 | 10.56° C | 85% | 1011.2 hPa | 0 mm | - | - | - |
| 1778167398 | 10° C | 88% | 1011.4 hPa | 0 mm | - | - | - |
| 1778166498 | 10° C | 87% | 1011.2 hPa | 0 mm | - | - | - |
| 1778165598 | 10.56° C | 81% | 1011.2 hPa | 0 mm | - | - | - |
| 1778164696 | 10° C | 84% | 1011.5 hPa | 0 mm | - | - | - |
| 1778163798 | 10° C | 81% | 1011.5 hPa | 0 mm | - | - | - |
| 1778162897 | 10.56° C | 83% | 1011.5 hPa | 0 mm | - | - | - |
| 1778161998 | 10.56° C | 82% | 1011.5 hPa | 0 mm | - | - | - |
| 1778161096 | 11.11° C | 69% | 1011.2 hPa | 0 mm | - | - | - |
| 1778160197 | 11.11° C | 71% | 1011.5 hPa | 0 mm | - | - | - |
| 1778159297 | 10° C | 79% | 1011.5 hPa | 0 mm | - | - | - |
| 1778158400 | 9.44° C | 80% | 1011.5 hPa | 0 mm | - | - | - |
| 1778157496 | 8.89° C | 85% | 1011.5 hPa | 0 mm | - | - | - |
| 1778156597 | 8.33° C | 87% | 1011.9 hPa | 0 mm | - | - | - |
| 1778155697 | 7.78° C | 89% | 1011.5 hPa | 0 mm | - | - | - |
| 1778154804 | 6.67° C | 92% | 1011.5 hPa | 0 mm | - | - | - |
| 1778153897 | 6.11° C | 92% | 1011.5 hPa | 0 mm | - | - | - |
* Rain latest hour (hover to see other rain measurements)
** Current wind speed in m/s (hover to see current wind gust speed)